Nome, AK

10:43 PM AKDT on March 30, 2015 (GMT -0800)
Golovin | | Change Station
CLOSE
Current Station
Airport
Location: Golovin,
Elevation: 26 ft
Nearby Weather Stations

Elev 26 ft 64.54 °N, 163.04 °W | Updated 3 hours ago

Clear
Clear
9 °F
Feels Like 0 °F
N
5
Wind Variable Wind from WNW

Today
High -- | Low -- °F
--% Chance of Precip.
Yesterday
High -- | Low -- °F
Precip. -- in
8:25 AM 9:47 PM
Waxing Gibbous, 85% visible
Pressure 29.63 in
Visibility 10.0 miles
Clouds Clear
Windchill 0 °F
Dew Point 0 °F
Humidity 67%
Rainfall 0.00 in
Snow Depth Not available.
UV 1 out of 12
Pollen Not available.
Air Quality Not available.
Flu Activity Not available.
METAR PAGL 310257Z 30004KT 10SM CLR M13/M18 A2963 RMK VIA PHONE

More Conditions Fewer Conditions

Pressure 29.63 in
Visibility 10.0 miles
Clouds Clear
Windchill 0 °F
Dew Point 0 °F
Humidity 67%
Rainfall 0.00 in
Snow Depth Not available.
UV 1 out of 12
Pollen Not available.
Air Quality Not available.
Flu Activity Not available.
METAR PAGL 310257Z 30004KT 10SM CLR M13/M18 A2963 RMK VIA PHONE

More Conditions Fewer Conditions

10-Day Weather Forecast

Almanac

Astronomy

Mar. 30, 2015 Rise Set
Actual Time
Civil Twilight
Nautical Twilight
Astronomical Twilight
Moon
Length of Visible Light
Length of Day
Tomorrow will be .
, % of the Moon is Illuminated

Today's Extremes

State Highs State Lows

Community

WunderPhotos

Upload Photos

1,809,729 photos uploaded!

WunderBlogs® & News

Nearby

Air Quality

  Air Quality AQ Index Pollutant
Not available.

Snow Depth

Station Depth Elevation

Earthquake Activity

City Distance Mag. Time & Date
Minimum magnitude displayed is 2.5.

Coastal Water Temperatures

Place Temperature

Stations

Nearby Weather Stations

Station Location Temp. Windchill Dew Point Humidity Wind Precip. Elev Updated Type